THOR ABLESTAR DEB, 544

Orbit data source: Space-Track

THOR ABLESTAR DEB, 544 is space debris in LEO originally from a launch on Thu, 29 Jun 1961 UTC launched from the Air Force Eastern Test Range (AFETR). Debris objects in space refer to the collection of defunct objects orbiting the Earth. Examples of debris include non-operational satellites, rocket bodies, and fragments generated from explosions, collisions, or faulty payload assembly.

Loading next visibility...
Identifier
544, 1961-015GD
Orbit
LEO
Last TLE update
12 hours ago
Origin
Manufacturer
Unknown
Mission
Spacecraft
Bus & Motor
Unknown
Mass
Unknown
Launch date (UTC)
1961-06-29 (64 years ago)
Launch vehicle
Unknown
Launch site
Air Force Eastern Test Range (AFETR)
Object type
Payload
Rocket body
Debris
Shape & HBR
Unknown
Radar Cross Section
Small (<0.1 m²)

Expand to show TLE details & history

TLE from 12 hours ago
0 THOR ABLESTAR DEB
1 00544U 61015GD  25133.84997461  .00000115  00000-0  23597-3 0  9994
2 00544  66.8750  56.8055 0183937 174.5341 248.1111 13.55942412147468
Epoch: 2025-05-13T20:23Z
Definitive object data (Epoch: 2025-05-13T20:23:57.806Z)
Latitude
53.43987°
Longitude
-86.07393°
Altitude
1,111.474 km
Speed
7.276 km/s
True Right ascension
06h 07m 02s
True Declination
53° 16' 59"
Sunlit
Object was in daylight at TLE epoch
Visualization TLE readout
Latitude
-29.97719°
Longitude
-136.35467°
Altitude
1,182.208 km
Speed
7.202 km/s
Apparent Right ascension
03h 37m 53s
Apparent Declination
-35° 18' 06"
Sunlit
Object is in daylight
Visualization observer readout
Local Sidereal Time
16:47:54
Azimuth
77.106° E
Elevation
-75.414°
Doppler factor
1
Orbital elements
Apogee altitude
1,185.497 km
Perigee altitude
912.276 km
Semi-major axis
7,427.023 km
Eccentricity
0.0183937
Inclination
66.875°
RAAN
56.8055°
Arg. of periapsis
174.5341°
True anomaly
246.17229°
Mean anomaly
248.1111°
Eccentric anomaly
247.13999°
Mean motion
3.39095 °/min
BSTAR
0.00023597
Orbital period
106.17 mins
Loading maneuver chart data...
Loading SW <> Apogee altitude chart data...

THOR ABLESTAR DEB Visibility forecast

Observer location: undefined°, undefined°

Span
Click to sort rows by Start time (UTC) header in descending order
Start Az.
Max El. time (UTC)
Max El. Az.
Max El.
End time (UTC)
End Az.
12 mins2025-05-14 19:12:03.389Z164.19° S2025-05-14 19:18:03.389Z108.466° ESE26.679°2025-05-14 19:24:03.389Z49.767° ENE
12 mins2025-05-14 21:01:03.389Z229.391° WSW2025-05-14 21:07:03.389Z302.573° NW39.276°2025-05-14 21:13:03.389Z18.888° NNE
5 mins2025-05-14 22:56:03.389Z308.541° NW2025-05-14 22:58:03.389Z326.704° NNW13.276°2025-05-14 23:01:03.389Z353.249° N
9 mins2025-05-15 04:32:03.389Z357.522° N2025-05-15 04:36:03.389Z55.44° ENE29.163°2025-05-15 04:41:03.389Z113.565° SE
9 mins2025-05-15 06:21:03.389Z308.855° NW2025-05-15 06:25:03.389Z248.917° W32.925°2025-05-15 06:30:03.389Z184.299° SSW
|